Regional Weather Roundup
Issued by NWS

Home | Current Version | Previous Version | Text Only | Print | Product List | Glossary Off
Versions: 1 2 3 4 5 6 7 8 9 10 11 12 13 14 15 16 17 18 19 20 21 22 23 24 25 26 27 28 29 30 31 32 33 34 35 36 37 38 39 40 41 42 43 44 45 46 47 48 49 50

739
ASUS43 KMPX 100801
RWRMN
WEATHER ROUNDUP FOR MINNESOTA
NATIONAL WEATHER SERVICE TWIN CITIES/CHANHASSEN MN
200 AM CST WED FEB 10 2016


NOTE: "FAIR" INDICATES FEW OR NO CLOUDS BELOW 12,000 FEET WITH NO
SIGNIFICANT WEATHER AND/OR OBSTRUCTIONS TO VISIBILITY. N/A MEANS
CURRENT SKY AND/OR WEATHER CONDITIONS ARE NOT AVAILABLE.

MNZ060>063-068>070-100900-
   Twin Cities Metro

CITY           SKY/WX    TMP DP  RH WIND       PRES   REMARKS
TWIN CITIES    PTCLDY     6  -4  63 N7        30.13F WCI  -6
ST PAUL        PTCLDY     5  -4  66 N9        30.15F WCI  -9
CRYSTAL        CLOUDY     5  -5  63 N5        30.12F WCI  -4
BLAINE         CLOUDY     5  -2  72 N3        30.11F
LAKEVILLE      CLOUDY     1  -4  78 CALM      30.12S
EDEN PRAIRIE   CLOUDY     5  -5  63 N3        30.12F
SOUTH ST PAUL  CLOUDY     7  -4  62 N5        30.13F WCI  -2
LAKE ELMO      FAIR       3  -4  72 CALM      30.13F
$$
MNZ001>005-007-008-013>017-022>024-027-028-100900-
   Northwest Minnesota

CITY           SKY/WX    TMP DP  RH WIND       PRES   REMARKS
BEMIDJI        CLOUDY   -12 -15  84 CALM      30.11S
HALLOCK        CLOUDY    -2  -9  71 CALM      30.18F
ROSEAU         CLOUDY    -9 -17  70 CALM      30.16F
WARROAD        CLOUDY    -8 -13  77 NE5       30.15F WCI -19
THIEF RVR FALL CLOUDY    -2  -8  78 E5        30.15F WCI -12
CROOKSTON      CLOUDY     1  -4  78 E3        30.17F
FOSSTON          N/A     -9 -15  77 CALM      30.13F
DETROIT LAKES  PTCLDY     1  -2  85 CALM      30.12S
MOORHEAD       CLOUDY     3  -2  78 E3        30.16F
PARK RAPIDS    CLOUDY    -7 -12  79 W3        30.10R
MAHNOMEN       FAIR      -3  -7  85 NE5       30.13F WCI -14
$$
MNZ006-009>011-018-025>026-100900-
   North Central Minnesota

CITY           SKY/WX    TMP DP  RH WIND       PRES   REMARKS
BAUDETTE       PTCLDY   -17 -22  78 CALM      30.13F
FLAG ISLAND    PTCLDY   -11 -17  77 CALM      30.15F
INTL FALLS     PTCLDY    -9 -14  78 N6        30.13S WCI -22
WASKISH        CLOUDY   -17 -20  83 CALM      30.12F
LONGVILLE      CLOUDY    -6  -9  84 CALM      30.10S
GRAND RAPIDS   CLOUDY    -8 -11  84 N7        30.07S WCI -22
CRANE LAKE     CLOUDY   -18 -22  83 CALM      30.14R
ORR            CLOUDY   -15 -20  76 CALM      30.07S
COOK           CLOUDY   -11 -15  84 CALM      30.09S
WALKER         FAIR      -8 -12  83 CALM      30.10F
$$
MNZ012-019>021-037-100900-
   Northeast Minnesota

CITY           SKY/WX    TMP DP  RH WIND       PRES   REMARKS
DULUTH         CLOUDY    -6 -11  79 N9        30.04R WCI -23
ELY            CLOUDY    -4  -9  77 N6        30.05R WCI -16
HIBBING        PTCLDY   -11 -14  86 N8        30.07F WCI -28
EVELETH        CLOUDY    -2  -8  78 N3        30.07S HAZE
DULUTH HARBOR  CLOUDY     1  -6  71 NW10      30.15R WCI -14
TWO HARBORS    CLOUDY    -2  -9  71 NW3       30.05R
SILVER BAY     CLOUDY    -2  -9  71 CALM      30.05R
G MARAIS ARPRT CLOUDY    -9 -17  70 NW12G17   29.95R WCI -29
$$
MNZ029>031-032-039>041-046>048-054>057-064-100900-
   West Central Minnesota

CITY           SKY/WX    TMP DP  RH WIND       PRES   REMARKS
FERGUS FALLS   CLOUDY     3  -2  78 E5        30.17F WCI  -6
WHEATON        CLOUDY    10   3  72 NE3       30.16F
MORRIS         CLOUDY     7   1  78 NE3       30.12F
ALEXANDRIA     CLOUDY     2  -4  76 NE6       30.11F WCI  -9
ELBOW LAKE     CLOUDY     4  -2  76 NE3       30.12F
WADENA         CLOUDY    -2  -8  78 CALM      30.11F
GLENWOOD       CLOUDY     1  -2  85 N3        30.11F
APPLETON       CLOUDY    12   5  73 NE9       30.13F WCI   0
BENSON         CLOUDY     7   0  72 CALM      30.13F
ORTONVILLE     CLOUDY    10   3  72 NE6       30.12F WCI   1
MADISON        CLOUDY    14   7  73 NE7       30.13F WCI   4
WILLMAR        FAIR       7   1  78 NW3       30.15R
$$
MNZ033>034-036-042>043-049>051-058-059-100900-
   Central Minnesota

CITY           SKY/WX    TMP DP  RH WIND       PRES   REMARKS
ST CLOUD       CLOUDY     2  -5  72 N5        30.12F WCI  -8
SAUK CENTRE    FAIR       0  -4  82 NW3       30.12S
PAYNESVILLE    PTCLDY     2  -2  81 CALM      30.13S
AITKIN         CLOUDY    -8 -17  65 CALM      30.08F
PINE RIVER     CLOUDY    -9 -13  84 CALM      30.13F
BRAINERD       CLOUDY    -2  -8  76 CALM      30.11F
STAPLES        CLOUDY    -6  -9  84 CALM      30.11S
LONG PRAIRIE   FAIR       0  -6  78 NW5       30.12F WCI -10
LITTLE FALLS   CLOUDY     1  -6  71 CALM      30.13S
LITCHFIELD     PTCLDY     3   0  85 N3        30.12F
BUFFALO        CLOUDY     4  -4  68 CALM      30.14F
MAPLE LAKE     CLOUDY     5  -2  72 NW5       30.13F WCI  -4
$$
MNZ037-044-045-052-053-100900-
   East Central Minnesota

CITY           SKY/WX    TMP DP  RH WIND       PRES   REMARKS
PRINCETON      CLOUDY     3  -4  72 N6        30.12S WCI  -8
MORA           CLOUDY     0  -6  78 CALM      30.13S
CAMBRIDGE      PTCLDY     3  -6  66 CALM      30.10F
RUSH CITY      CLOUDY     2  -5  72 N6        30.11F WCI  -9
MOOSE LAKE     CLOUDY    -8 -13  77 CALM      30.08F
HINCKLEY       FAIR       1  -4  78 NW7       30.10F WCI -11
CLOQUET        PTCLDY    -6  -9  84 NW7       30.06S WCI -20
MCGREGOR       PTCLDY    -6  -9  84 N6        30.09F WCI -18
$$
MNZ071>073-080-081-089-090-097-098-100900-
   Southwest Minnesota

CITY           SKY/WX    TMP DP  RH WIND       PRES   REMARKS
MONTEVIDEO     CLOUDY    10   3  72 E8        30.15F WCI  -1
GRANITE FALLS  CLOUDY    13   4  68 N8        30.15F WCI   2
CANBY          CLOUDY    17  10  75 NE5       30.12F WCI   9
MARSHALL       CLOUDY    13   5  70 N7        30.11F WCI   3
REDWOOD FALLS  CLOUDY    10   1  67 N6        30.14F WCI   0
OLIVIA         CLOUDY    10   3  72 N6        30.13F WCI   1
PIPESTONE      CLOUDY    18   7  62 E3        30.06F
WINDOM         CLOUDY    12   7  79 N8        30.09F WCI   1
WORTHINGTON    CLOUDY    16   7  67 N7        30.09F WCI   6
JACKSON        CLOUDY    16   9  73 N10       30.09F WCI   3
TRACY          CLOUDY    14   9  78 N8        30.10F WCI   3
SLAYTON        CLOUDY    14   9  80 N5        30.08F WCI   6
$$
MNZ065>067-074>077-082>085-091>093-100900-
   South Central Minnesota

CITY           SKY/WX    TMP DP  RH WIND       PRES   REMARKS
MANKATO        PTCLDY     5  -2  72 NW6       30.12F WCI  -6
NEW ULM        CLOUDY     5  -2  72 N8        30.13F WCI  -8
ST JAMES       CLOUDY     7   1  78 NW7       30.14F WCI  -5
FAIRMONT       CLOUDY     9   1  72 N8        30.11S WCI  -4
GLENCOE        PTCLDY     5   1  83 N3        30.12F
FARIBAULT        N/A      3  -2  78 NW3       30.11F
OWATONNA       CLOUDY     1  -6  71 CALM      30.10F
WASECA         PTCLDY     1  -4  78 NW5       30.12F WCI  -8
ALBERT LEA     CLOUDY     5   0  78 NW6       30.09F WCI  -6
$$
MNZ078>079-086>088-094>096-100900-
   Southeast Minnesota

CITY           SKY/WX    TMP DP  RH WIND       PRES   REMARKS
ROCHESTER      CLOUDY     0  -8  69 NW10      30.06F WCI -16
RED WING       CLOUDY     3  -6  66 CALM      30.12S
STANTON        PTCLDY     3  -6  66 CALM      30.11F
DODGE CENTER   CLOUDY     1  -6  71 N7        30.07F WCI -11
WINONA         PTCLDY     9   0  66 NW3       30.12F
AUSTIN         CLOUDY     1  -2  85 NW5       30.09S WCI  -8
PRESTON        CLOUDY     0  -8  70 NW10      30.07S WCI -16
$$
ABBREVIATIONS USED IN REMARKS
   TC - TEMPERATURES IN CELSIUS
  WCI - WIND CHILL INDEX
   HX - HEAT INDEX
  VSB - VISIBILITY
$$




USA.gov is the U.S. government's official web portal to all federal, state and local government web resources and services.